Back to catalog

BREEZE-M DEB

AliveHEO
NORAD 38559·DEBRIS·🇷🇺 Russia

Launched Feb 28, 2006 from Baikonur Cosmodrome

Loading…

Next Passes (next 24 hours)

TLE

FreshSource: Space-Track

Epoch: Sep 9, 2026, 10:36 UTC

1 38559U 06006CZ  26252.44181104  .00000567  00000-0  12159-2 0  9990
2 38559  52.0764 269.6067 5002865 196.3929 344.8041  5.33284769 14137

Track BREEZE-M DEB in real time with AllMySat

Download on the App Store